Weather in Zilupe

Latvia     56°23′20″N   28°07′13″E
temp.,
°C
wind,
m/s
gust,
m/s
humid.,
%
clouds,
%
prec.,
mm/h
press.,
hPa
HPBL,
m
19 january, wed
wed1923:00−5wsw31085100 0.0 1022244
02:00−3sw41284100 0.0 1020413
05:00−2wsw41287100 0.1 1017585
08:00−1wsw31091100 0.4 1015506
11:000sw4993100 0.0 1014433
14:00+1sw41195100 0.0 1011593
17:00+1sw51190100 0.0 1009568
20:00+1sw51389100 0.0 1006471
20 january, thu
thu2023:00+1ssw41488100 0.0 1003430
02:00+1ssw51584100 0.0 1001558
05:00+1s61782100 0.0 996629
08:000ssw61483100 0.0 993833
11:00−1ssw51395100 0.8 991814
14:000ssw6128185 1.8 9891386
17:00−2ssw6139098 0.1 989973
20:00−3ssw5128696 0.2 989921
21 january, fri
fri2123:00−3s51290100 0.1 988901
02:00−4se51194100 0.8 987976
05:00−3se3796100 1.9 986470
08:00−3nne2397100 3.4 988221
11:00−3n4794100 1.4 991455
14:00−3nnw4895100 2.0 993574
17:00−4nnw4896100 1.1 995569
20:00−4nne4796100 2.0 998523
22 january, sat
sat2223:00−5nne4994100 0.6 1001550
02:00−6nne51292100 1.1 1005602
05:00−7n4119499 0.1 1008460
08:00−6n4109399 0.3 1010530
11:00−5nne4991100 0.1 1013613
14:00−5n4790100 0.3 1015678
17:00−7nne4993100 0.1 1018545
20:00−9nne3895100 0.2 1021402
23 january, sun
sun2323:00−10nne379799 0.1 1023264
02:00−13n269998 0.1 1025148
05:00−14nne269993 0.0 1028123
08:00−16nne119978 0.1 102942
11:00−11ne239165 0.0 1031148
14:00−8ne128849 0.0 1032194
17:00−13n119866 0.0 10349
20:00−14wnw119970 0.0 10359